EN

Hourly Weather Yablunytsya

Today, 24 January, Sunday

Time Temperature Precipitation Wind Pressure Humidity
00:00 +4°C° 0 mm 4 mps 695 mmHg 88%
01:00 +4°C° 0 mm 3 mps 694 mmHg 90%
02:00 +3°C° 0 mm 2 mps 693 mmHg 97%
03:00 +4°C° 0 mm 2 mps 693 mmHg 86%
04:00 +3°C° 0 mm 2 mps 693 mmHg 88%
05:00 +2°C° 0 mm 3 mps 693 mmHg 90%
06:00 +3°C° 0 mm 3 mps 692 mmHg 90%
07:00 +3°C° 0 mm 4 mps 692 mmHg 96%
08:00 +3°C° 0 mm 4 mps 692 mmHg 97%
09:00 +2°C° 0 mm 5 mps 692 mmHg 95%
10:00 +2°C° 0 mm 5 mps 692 mmHg 96%
11:00 +2°C° 0 mm 5 mps 693 mmHg 97%
12:00 +3°C° 0 mm 5 mps 693 mmHg 97%
13:00 +3°C° 0 mm 5 mps 693 mmHg 95%
14:00 +3°C° 0 mm 5 mps 693 mmHg 95%
15:00 +2°C° 0 mm 6 mps 692 mmHg 95%
16:00 +2°C° 0 mm 7 mps 692 mmHg 93%
17:00 +2°C° 0 mm 7 mps 693 mmHg 93%
18:00 0°C° 0 mm 7 mps 693 mmHg 93%
19:00 +1°C° 0 mm 6 mps 693 mmHg 95%
20:00 +1°C° 0 mm 5 mps 693 mmHg 96%
21:00 +1°C° 0 mm 6 mps 693 mmHg 97%
22:00 0°C° 0 mm 7 mps 692 mmHg 96%
23:00 0°C° 0 mm 7 mps 692 mmHg 90%

Tomorrow, 25 January, Monday

Time Temperature Precipitation Wind Pressure Humidity
00:00 +2°C° 0 mm 7 mps 692 mmHg 84%
01:00 +2°C° 0 mm 6 mps 691 mmHg 82%
02:00 +3°C° 0 mm 7 mps 690 mmHg 85%
03:00 +2°C° 0 mm 7 mps 690 mmHg 89%
04:00 +2°C° 0 mm 5 mps 689 mmHg 95%
05:00 +2°C° 0 mm 5 mps 688 mmHg 97%
06:00 +3°C° 0 mm 4 mps 687 mmHg 99%
07:00 +3°C° 0 mm 4 mps 686 mmHg 95%
08:00 +2°C° 0 mm 5 mps 686 mmHg 94%
09:00 +3°C° 0 mm 5 mps 685 mmHg 95%
10:00 +3°C° 0 mm 5 mps 686 mmHg 94%
11:00 +3°C° 0 mm 5 mps 685 mmHg 92%
12:00 +2°C° 0 mm 5 mps 686 mmHg 93%
13:00 -1°C° 0 mm 7 mps 685 mmHg 91%
14:00 -2°C° 0 mm 8 mps 685 mmHg 91%
15:00 -2°C° 0 mm 8 mps 686 mmHg 91%
16:00 -4°C° 0 mm 8 mps 686 mmHg 91%
17:00 -4°C° 0 mm 9 mps 686 mmHg 90%
18:00 -4°C° 0 mm 8 mps 686 mmHg 90%
19:00 -4°C° 0 mm 6 mps 688 mmHg 91%
20:00 -4°C° 0 mm 6 mps 688 mmHg 90%
21:00 -4°C° 0 mm 7 mps 689 mmHg 90%
22:00 -4°C° 0 mm 7 mps 689 mmHg 93%
23:00 -4°C° 0 mm 7 mps 690 mmHg 91%

Day after tomorrow, 26 January, Tuesday

Time Temperature Precipitation Wind Pressure Humidity
00:00 -4°C° 0 mm 6 mps 690 mmHg 91%
01:00 -5°C° 0 mm 5 mps 690 mmHg 91%
02:00 -4°C° 0 mm 4 mps 691 mmHg 91%
03:00 -4°C° 0 mm 4 mps 691 mmHg 92%
04:00 -4°C° 0 mm 4 mps 691 mmHg 92%
05:00 -5°C° 0 mm 5 mps 692 mmHg 92%
06:00 -6°C° 0 mm 5 mps 692 mmHg 92%
07:00 -4°C° 0 mm 2 mps 692 mmHg 94%
08:00 -5°C° 0 mm 3 mps 693 mmHg 95%
09:00 -5°C° 0 mm 3 mps 693 mmHg 93%
10:00 -4°C° 0 mm 3 mps 694 mmHg 92%
11:00 -3°C° 0 mm 4 mps 694 mmHg 91%
12:00 -3°C° 0 mm 4 mps 695 mmHg 90%
13:00 -4°C° 0 mm 5 mps 695 mmHg 89%
14:00 -4°C° 0 mm 5 mps 695 mmHg 90%
15:00 -4°C° 0 mm 5 mps 696 mmHg 89%
16:00 -5°C° 0 mm 6 mps 696 mmHg 90%
17:00 -5°C° 0 mm 6 mps 696 mmHg 91%
18:00 -5°C° 0 mm 5 mps 696 mmHg 92%
19:00 -6°C° 0 mm 6 mps 696 mmHg 92%
20:00 -6°C° 0 mm 5 mps 696 mmHg 91%
21:00 -6°C° 0 mm 5 mps 697 mmHg 92%
22:00 -6°C° 0 mm 5 mps 697 mmHg 92%
23:00 -5°C° 0 mm 4 mps 697 mmHg 94%

27 January, Wednesday

Time Temperature Precipitation Wind Pressure Humidity
00:00 -6°C° 0 mm 5 mps 697 mmHg 94%
01:00 -7°C° 0 mm 5 mps 696 mmHg 93%
02:00 -7°C° 0 mm 5 mps 697 mmHg 92%
03:00 -7°C° 0 mm 5 mps 696 mmHg 93%
04:00 -8°C° 0 mm 5 mps 696 mmHg 92%
05:00 -8°C° 0 mm 4 mps 696 mmHg 92%
06:00 -8°C° 0 mm 4 mps 696 mmHg 93%
07:00 -7°C° 0 mm 3 mps 696 mmHg 93%
08:00 -8°C° 0 mm 3 mps 696 mmHg 93%
09:00 -8°C° 0 mm 3 mps 696 mmHg 95%
10:00 -6°C° 0 mm 3 mps 696 mmHg 93%
11:00 -4°C° 0 mm 3 mps 697 mmHg 92%
12:00 -2°C° 0 mm 3 mps 697 mmHg 91%
13:00 -2°C° 0 mm 3 mps 697 mmHg 89%
14:00 -2°C° 0 mm 4 mps 697 mmHg 89%
15:00 -3°C° 0 mm 4 mps 697 mmHg 89%
16:00 -3°C° 0 mm 4 mps 697 mmHg 89%
17:00 -4°C° 0 mm 3 mps 697 mmHg 91%
18:00 -5°C° 0 mm 3 mps 697 mmHg 93%
19:00 -5°C° 0 mm 3 mps 697 mmHg 93%
20:00 -6°C° 0 mm 3 mps 697 mmHg 93%
21:00 -6°C° 0 mm 3 mps 697 mmHg 93%
22:00 -6°C° 0 mm 3 mps 697 mmHg 93%
23:00 -7°C° 0 mm 3 mps 697 mmHg 92%

28 January, Thursday

Time Temperature Precipitation Wind Pressure Humidity
00:00 -7°C° 0 mm 3 mps 697 mmHg 92%
01:00 -6°C° 0 mm 2 mps 697 mmHg 93%
02:00 -7°C° 0 mm 3 mps 697 mmHg 94%
03:00 -8°C° 0 mm 3 mps 697 mmHg 94%
04:00 -7°C° 0 mm 3 mps 697 mmHg 94%
05:00 -7°C° 0 mm 3 mps 698 mmHg 92%
06:00 -7°C° 0 mm 3 mps 698 mmHg 90%
07:00 -6°C° 0 mm 3 mps 698 mmHg 89%
08:00 -6°C° 0 mm 3 mps 698 mmHg 90%
09:00 -6°C° 0 mm 3 mps 698 mmHg 92%
10:00 -6°C° 0 mm 3 mps 698 mmHg 91%
11:00 -5°C° 0 mm 3 mps 698 mmHg 87%
12:00 -4°C° 0 mm 3 mps 699 mmHg 84%
13:00 -4°C° 0 mm 4 mps 698 mmHg 85%
14:00 -5°C° 0 mm 5 mps 698 mmHg 85%
15:00 -5°C° 0 mm 5 mps 698 mmHg 86%
16:00 -6°C° 0 mm 6 mps 698 mmHg 85%
17:00 -8°C° 0 mm 6 mps 698 mmHg 87%
18:00 -8°C° 0 mm 5 mps 697 mmHg 88%
19:00 -8°C° 0 mm 4 mps 697 mmHg 92%
20:00 -7°C° 0 mm 3 mps 697 mmHg 92%
21:00 -9°C° 0 mm 4 mps 697 mmHg 92%
22:00 -9°C° 0 mm 4 mps 696 mmHg 90%
23:00 -9°C° 0 mm 4 mps 696 mmHg 90%

29 January, Friday

Time Temperature Precipitation Wind Pressure Humidity
00:00 -11°C° 0 mm 5 mps 695 mmHg 96%
01:00 -11°C° 0 mm 6 mps 695 mmHg 97%
02:00 -10°C° 0 mm 5 mps 694 mmHg 95%
03:00 -8°C° 0 mm 5 mps 694 mmHg 95%
04:00 -7°C° 0 mm 5 mps 693 mmHg 94%
05:00 -5°C° 0 mm 4 mps 693 mmHg 93%
06:00 -5°C° 0 mm 4 mps 692 mmHg 93%
07:00 -4°C° 0 mm 4 mps 692 mmHg 93%
08:00 -5°C° 0 mm 5 mps 692 mmHg 93%
09:00 -4°C° 0 mm 5 mps 692 mmHg 93%
10:00 -3°C° 0 mm 4 mps 691 mmHg 93%
11:00 -1°C° 0 mm 5 mps 691 mmHg 92%
12:00 -1°C° 0 mm 6 mps 691 mmHg 91%
13:00 -1°C° 0 mm 6 mps 690 mmHg 91%
14:00 -1°C° 0 mm 6 mps 690 mmHg 91%
15:00 +1°C° 0 mm 5 mps 689 mmHg 92%
16:00 +1°C° 0 mm 5 mps 689 mmHg 92%
17:00 0°C° 0 mm 5 mps 689 mmHg 93%
18:00 -1°C° 0 mm 4 mps 688 mmHg 93%
19:00 -1°C° 0 mm 4 mps 688 mmHg 93%
20:00 -1°C° 0 mm 4 mps 688 mmHg 93%
21:00 0°C° 0 mm 5 mps 687 mmHg 93%
22:00 0°C° 0 mm 5 mps 687 mmHg 92%
23:00 +1°C° 0 mm 3 mps 687 mmHg 92%
Show more

We Need Your Consent

Meteoprog and our Service Providers may store and access personal data such as cookies, device identifiers or other similar technologies on your device and process such data to personalise content and ads, as well as provide social media features and to analyse the traffic.

  • Store and/or access information on your device

    Cookies, device identifiers or other information can be stored or accessed on your device for the purposes indicated above.

  • Personalised ads and content, ad and content measurement, audience insights, and products development

    Ads and content can be personalised based on a profile. More data can be added to better personalise ads and content. Ad and content performance can be measured. Insights about the audience who saw the ads and content can be derived. Such data can be used to develop or improve user’s experience, systems and software.

By clicking ‘I Agree’ you will allow the use of indicated cookies, device identifiers, web beacons or other similar technologies. Your settings can be changed in the browser on your device.

For certain purposes, legitimate interests may be relied on, rather than consent. You can read more about this in our Privacy and Cookie Policy.